09:34
Airports
History
Links
Donate
Help keep this website running!
PayPal
Bitcoin
This page is community maintained. The information is intended for PC simulator navigation or reference.
Always use approved charts for navigation.
CT10
Metenosky Aviation Field
Metenosky Aviation Field (CT10)
Coventry, Connecticut, United States (6238)
4
Lat/Lng:41° 44' 53.35" N / 72° 17' 39.29" W
41.748154 / -72.294246
Elevation:550'ft / 168mMSL
ID / ICAO:CT10
Runways:1
Longest:05-23
Grass 612m / 2,006ft
Nearby Weather08:52 GMT 2017-10-24
Nearby weather at KIJD, Windham located 5.9 nautical miles from CT10
Altimeter: 30.00
Visibility: 10.0 statute miles
Wind: 8 knots (from 180°)
Temp: 20°c / 68°f
Humidity: 94.0%

METAR: KIJD 240852Z AUTO 18008G19KT 10SM OVC009 20/19 A3000 RMK AO2 CIG 008V014 SLP155 60004 T02000189 56022

(Powered by phpweather)
Nearby VORs <50NM
Nearby NDBs
Runway 05 / 23
Dimensions:611.5 x 91.4m 2006' x 300'ft
Surface:Grass
Runway 05 [A]Runway 23 [B]
Heading:029°TH 209°TH
Lat:
Lng:
41° 44' 44.8"N
72° 17' 45.9"W
41° 45' 1.91"N
72° 17' 32.67"W
User Notes and Comments
41° 44' 53.35" N / 72° 17' 39.29" W
Distance To
Airport ID:
Nearby Airports
(U) Windham 5.9 NM
KIJD ( WX ) E 92°
(R) Heckler Field 6.3 NM
CT09 NW 306°
(R) Skis Landing Area 12.1 NM
CT07 S 182°
(R) Rankl Field 12.5 NM
CT20 SW 214°
4 Salmon River Airfield 13.4 NM
9B8 SW 214°
(R) Gager Field 13.6 NM
CT36 SSE 158°
(U) Ellington 14.8 NM
7B9 NW 325°
VFR Chart
Flight Planning at SkyVector.com